When you browse on this site, cookies collect data to enhance your experience and personalize the content and advertising you see.
Visit our Privacy Policy to learn more. By continuing to use the site, you agree to this use of cookies and data.
  • In Czech Republic
  • List of Countries
  • For 7 days
  • Water Temperature
  • Satellite Maps
  • Weather Map
  • Weather Widgets
  • user-avatar
    Login

    Hourly Weather Methuen

    Today, 16 July, Tuesday

    Time Temperature Precipitation Wind Pressure Humidity
    00:00 +20°C° 0 mm 1 mps 759 mmHg 69%
    01:00 +19°C° 0 mm 1 mps 759 mmHg 70%
    02:00 +19°C° 0 mm 1 mps 759 mmHg 71%
    03:00 +18°C° 0 mm 1 mps 759 mmHg 72%
    04:00 +18°C° 0 mm 1 mps 759 mmHg 73%
    05:00 +20°C° 0 mm 1 mps 759 mmHg 69%
    06:00 +21°C° 0 mm 1 mps 759 mmHg 64%
    07:00 +23°C° 0 mm 1 mps 760 mmHg 60%
    08:00 +25°C° 0 mm 1 mps 760 mmHg 54%
    09:00 +27°C° 0 mm 1 mps 759 mmHg 47%
    10:00 +29°C° 0 mm 2 mps 759 mmHg 41%
    11:00 +30°C° 0 mm 2 mps 759 mmHg 38%
    12:00 +31°C° 0 mm 2 mps 759 mmHg 35%
    13:00 +34°C° 0 mm 2 mps 758 mmHg 32%
    14:00 +34°C° 0 mm 2 mps 758 mmHg 34%
    15:00 +33°C° 0 mm 3 mps 757 mmHg 36%
    16:00 +33°C° 0 mm 3 mps 757 mmHg 39%
    17:00 +31°C° 0 mm 2 mps 757 mmHg 46%
    18:00 +29°C° 0 mm 2 mps 757 mmHg 54%
    19:00 +27°C° 0 mm 2 mps 757 mmHg 62%
    20:00 +27°C° 0 mm 2 mps 757 mmHg 63%
    21:00 +26°C° 0 mm 2 mps 757 mmHg 64%
    22:00 +26°C° 0 mm 3 mps 757 mmHg 66%
    23:00 +25°C° 0 mm 3 mps 757 mmHg 70%

    Tomorrow, 17 July, Wednesday

    Time Temperature Precipitation Wind Pressure Humidity
    00:00 +24°C° 0 mm 3 mps 757 mmHg 74%
    01:00 +24°C° 0 mm 2 mps 756 mmHg 78%
    02:00 +24°C° 0.1 mm 2 mps 756 mmHg 80%
    03:00 +23°C° 0.1 mm 2 mps 756 mmHg 83%
    04:00 +23°C° 0.1 mm 2 mps 756 mmHg 85%
    05:00 +24°C° 0 mm 2 mps 756 mmHg 85%
    06:00 +24°C° 0 mm 2 mps 757 mmHg 84%
    07:00 +24°C° 0 mm 1 mps 757 mmHg 84%
    08:00 +26°C° 0 mm 2 mps 757 mmHg 78%
    09:00 +27°C° 0 mm 2 mps 756 mmHg 72%
    10:00 +29°C° 0 mm 2 mps 756 mmHg 65%
    11:00 +29°C° 0.2 mm 3 mps 756 mmHg 66%
    12:00 +30°C° 0.2 mm 3 mps 756 mmHg 67%
    13:00 +30°C° 0.2 mm 3 mps 756 mmHg 68%
    14:00 +29°C° 0.3 mm 3 mps 756 mmHg 74%
    15:00 +28°C° 0.3 mm 3 mps 755 mmHg 79%
    16:00 +26°C° 0.3 mm 3 mps 755 mmHg 85%
    17:00 +25°C° 0.6 mm 2 mps 756 mmHg 88%
    18:00 +25°C° 0.6 mm 2 mps 756 mmHg 91%
    19:00 +24°C° 0.6 mm 1 mps 756 mmHg 95%
    20:00 +24°C° 1.4 mm 1 mps 756 mmHg 95%
    21:00 +23°C° 1.4 mm 1 mps 756 mmHg 96%
    22:00 +23°C° 1.4 mm 1 mps 756 mmHg 96%
    23:00 +23°C° 0.1 mm 1 mps 756 mmHg 96%

    Day after tomorrow, 18 July, Thursday

    Time Temperature Precipitation Wind Pressure Humidity
    00:00 +23°C° 0.1 mm 1 mps 756 mmHg 96%
    01:00 +23°C° 0.1 mm 1 mps 756 mmHg 96%
    02:00 +23°C° 0 mm 1 mps 756 mmHg 96%
    03:00 +23°C° 0 mm 1 mps 756 mmHg 96%
    04:00 +23°C° 0 mm 1 mps 757 mmHg 96%
    05:00 +21°C° 0 mm 2 mps 757 mmHg 93%
    06:00 +21°C° 0 mm 3 mps 758 mmHg 91%
    07:00 +21°C° 0 mm 4 mps 758 mmHg 88%
    08:00 +22°C° 0 mm 5 mps 758 mmHg 78%
    09:00 +23°C° 0 mm 5 mps 758 mmHg 69%
    10:00 +23°C° 0 mm 5 mps 759 mmHg 59%
    11:00 +25°C° 0 mm 5 mps 759 mmHg 56%
    12:00 +25°C° 0 mm 4 mps 759 mmHg 54%
    13:00 +25°C° 0 mm 4 mps 758 mmHg 52%
    14:00 +24°C° 0 mm 3 mps 758 mmHg 55%
    15:00 +22°C° 0 mm 3 mps 758 mmHg 59%
    16:00 +21°C° 0 mm 3 mps 758 mmHg 63%
    17:00 +21°C° 0 mm 2 mps 758 mmHg 66%
    18:00 +20°C° 0 mm 2 mps 758 mmHg 70%
    19:00 +19°C° 0 mm 2 mps 758 mmHg 73%
    20:00 +20°C° 0 mm 1 mps 759 mmHg 77%
    21:00 +19°C° 0 mm 1 mps 759 mmHg 80%
    22:00 +19°C° 0 mm 1 mps 759 mmHg 84%
    23:00 +18°C° 0 mm 1 mps 758 mmHg 86%

    19 July, Friday

    Time Temperature Precipitation Wind Pressure Humidity
    00:00 +18°C° 0 mm 1 mps 758 mmHg 88%
    01:00 +18°C° 0 mm 1 mps 758 mmHg 90%
    02:00 +16°C° 0 mm 0 mps 757 mmHg 89%
    03:00 +16°C° 0 mm 0 mps 757 mmHg 88%
    04:00 +17°C° 0 mm 0 mps 757 mmHg 87%
    05:00 +18°C° 0 mm 0 mps 757 mmHg 84%
    06:00 +19°C° 0 mm 0 mps 757 mmHg 81%
    07:00 +22°C° 0 mm 1 mps 758 mmHg 78%
    08:00 +24°C° 0 mm 1 mps 757 mmHg 72%
    09:00 +27°C° 0 mm 2 mps 757 mmHg 66%
    10:00 +29°C° 0 mm 2 mps 756 mmHg 60%
    11:00 +31°C° 0 mm 2 mps 756 mmHg 56%
    12:00 +34°C° 0 mm 2 mps 755 mmHg 51%
    13:00 +36°C° 0 mm 3 mps 755 mmHg 47%
    14:00 +36°C° 0 mm 3 mps 754 mmHg 47%
    15:00 +36°C° 0 mm 3 mps 754 mmHg 47%
    16:00 +37°C° 0 mm 3 mps 754 mmHg 47%
    17:00 +35°C° 0 mm 3 mps 753 mmHg 54%
    18:00 +34°C° 0 mm 3 mps 753 mmHg 61%
    19:00 +31°C° 0 mm 3 mps 753 mmHg 69%
    20:00 +30°C° 0 mm 3 mps 753 mmHg 71%
    21:00 +29°C° 0 mm 3 mps 753 mmHg 73%
    22:00 +28°C° 0 mm 3 mps 753 mmHg 76%
    23:00 +28°C° 0 mm 3 mps 753 mmHg 76%

    20 July, Saturday

    Time Temperature Precipitation Wind Pressure Humidity
    00:00 +28°C° 0 mm 3 mps 752 mmHg 77%
    01:00 +28°C° 0 mm 3 mps 752 mmHg 77%
    02:00 +27°C° 0 mm 3 mps 752 mmHg 80%
    03:00 +27°C° 0 mm 2 mps 752 mmHg 82%
    04:00 +27°C° 0 mm 2 mps 752 mmHg 84%
    05:00 +28°C° 0 mm 2 mps 752 mmHg 80%
    06:00 +29°C° 0 mm 3 mps 752 mmHg 76%
    07:00 +30°C° 0 mm 3 mps 753 mmHg 72%
    08:00 +33°C° 0 mm 3 mps 753 mmHg 64%
    09:00 +35°C° 0 mm 2 mps 753 mmHg 56%
    10:00 +37°C° 0 mm 2 mps 753 mmHg 48%
    11:00 +38°C° 0 mm 2 mps 753 mmHg 44%
    12:00 +39°C° 0 mm 3 mps 752 mmHg 40%
    13:00 +40°C° 0 mm 3 mps 752 mmHg 36%
    14:00 +40°C° 0 mm 3 mps 752 mmHg 38%
    15:00 +41°C° 0 mm 4 mps 751 mmHg 39%
    16:00 +41°C° 0 mm 4 mps 751 mmHg 40%
    17:00 +38°C° 0 mm 4 mps 751 mmHg 48%
    18:00 +37°C° 0 mm 3 mps 751 mmHg 56%
    19:00 +35°C° 0 mm 3 mps 751 mmHg 63%
    20:00 +34°C° 0 mm 3 mps 751 mmHg 65%
    21:00 +33°C° 0 mm 3 mps 752 mmHg 67%
    22:00 +31°C° 0 mm 3 mps 752 mmHg 69%
    23:00 +31°C° 0 mm 3 mps 752 mmHg 72%

    21 July, Sunday

    Time Temperature Precipitation Wind Pressure Humidity
    00:00 +30°C° 0 mm 2 mps 752 mmHg 75%
    01:00 +29°C° 0 mm 1 mps 752 mmHg 78%
    02:00 +28°C° 0 mm 1 mps 752 mmHg 80%
    03:00 +28°C° 0 mm 2 mps 752 mmHg 83%
    04:00 +27°C° 0 mm 2 mps 752 mmHg 85%
    05:00 +28°C° 0 mm 1 mps 752 mmHg 81%
    06:00 +29°C° 0 mm 1 mps 753 mmHg 77%
    07:00 +30°C° 0 mm 1 mps 753 mmHg 72%
    08:00 +32°C° 0 mm 1 mps 753 mmHg 62%
    09:00 +35°C° 0 mm 1 mps 753 mmHg 51%
    10:00 +37°C° 0 mm 1 mps 753 mmHg 41%
    11:00 +39°C° 0 mm 1 mps 753 mmHg 39%
    12:00 +39°C° 0 mm 1 mps 753 mmHg 37%
    13:00 +40°C° 0 mm 1 mps 753 mmHg 35%
    14:00 +37°C° 0.2 mm 1 mps 753 mmHg 45%
    15:00 +35°C° 0.2 mm 2 mps 753 mmHg 55%
    16:00 +32°C° 0.2 mm 2 mps 753 mmHg 65%
    17:00 +30°C° 0.7 mm 2 mps 753 mmHg 70%
    18:00 +29°C° 0.7 mm 1 mps 753 mmHg 75%
    19:00 +28°C° 0.7 mm 1 mps 753 mmHg 81%
    20:00 +27°C° 0 mm 1 mps 753 mmHg 81%
    21:00 +27°C° 0 mm 1 mps 754 mmHg 81%
    22:00 +26°C° 0 mm 1 mps 754 mmHg 82%
    23:00 +24°C° 0 mm 0 mps 754 mmHg 83%
    Show more